Torna al catalogo

FENGYUN 1C DEB

AttivoPO
NORAD 31177·DEBRIS·🇨🇳 China

Lanciato May 10, 1999 da Taiyuan Satellite Launch Center

Loading…

Prossimi Passaggi (prossime 24 ore)

TLE

AggiornatoSource: Space-Track

Epoca: Sep 14, 2026, 15:22 UTC

1 31177U 99025BJF 26257.64054095  .00002475  00000-0  23098-2 0  9991
2 31177  98.7560 148.9645 0303755 311.7141  74.5257 13.64043025699714

Traccia FENGYUN 1C DEB in tempo reale con AllMySat

Download on the App Store